Location: Newark
(51.2000°N, 58.6167°E)
Time: 09:01:49
(UTC+00:00)

Envisat - Pass Details

Date: 05 October 2020
Orbit: 764 x 766 km, 98.1° (Epoch: 23 October)

Event Time Altitude Azimuth Distance (km) Brightness Sun altitude
Rises 00:35:32 0° 30° (NNE) 3,244 6.9 -16.0°
Reaches altitude 10° 00:39:25 10° 60° (ENE) 2,310 6.7 -15.4°
Maximum altitude 00:41:27 12° 84° (E) 2,150 6.6 -15.1°
Drops below altitude 10° 00:43:28 10° 108° (ESE) 2,303 6.5 -14.8°
Sets 00:47:19 0° 138° (SE) 3,222 6.7 -14.2°
